THOR ABLESTAR R/B, 703

Orbit data source: Space-Track

THOR ABLESTAR R/B, 703 is space debris in LEO originally from a launch on Thu, 05 Dec 1963 UTC launched from the Air Force Western Test Range (AFWTR). Debris objects in space refer to the collection of defunct objects orbiting the Earth. Examples of debris include non-operational satellites, rocket bodies, and fragments generated from explosions, collisions, or faulty payload assembly.

Loading next visibility...
Identifier
703, 1963-049A
Orbit
LEO
Country
Flag of USUS
Related business
Manufacturer
Aerojet
Mission
Spacecraft
Bus & Motor
ABLESTAR, Unknown motor
Mass
~600 kg wet, 600 kg dry
Launch date (UTC)
1963-12-05 (62 years ago)
Launch vehicle
Unknown
Launch site
Air Force Western Test Range (AFWTR)
Object type
Payload
Rocket body
Debris
Shape & HBR
Cyl, 2.4 m
Radar Cross Section
6.048 m², Large (>1 m²)

Expand to show TLE details & history
Last TLE update: 1 day ago

TLE from 1 day ago
0 THOR ABLESTAR R/B
1 00703U 63049A   25242.07891094  .00000034  00000-0  38920-4 0  9998
2 00703  89.9155  72.5108 0017173  37.2488  86.2278 13.49976824 39988
Epoch: 2025-08-30T01:53Z
TLE epoch observation values (Epoch: 2025-08-30T01:53:37.905Z)
Latitude
56.42009°
Longitude
-114.54213°
Altitude
1,081.024 km
Speed
7.317 km/s
True Right ascension
16h 49m 32s
True Declination
56° 16' 06"
Sunlit
Object was in daylight at epoch
Visualization orbit readout
Latitude
Unknown
Longitude
Unknown
Altitude
Unknown
Speed
Unknown
Apparent Right ascension
Unknown
Apparent Declination
Unknown
Sunlit
N/A
Visualization observer readout
Local Sidereal Time
18:01:14
Azimuth
Unknown
Elevation
Unknown
Doppler factor
Unknown
Orbital elements
Apogee altitude
1,082.183 km
Perigee altitude
1,056.604 km
Semi-major axis
7,447.531 km
Eccentricity
0.00172
Inclination
89.9155°
RAAN
72.5108°
Arg. of periapsis
37.2488°
True anomaly
86.42419°
Mean anomaly
86.2278°
Eccentric anomaly
86.32599°
Mean motion
3.37695 °/min
Orbital period
106.61 mins
BSTAR
0.00003892
Loading maneuver chart data...
Computing Atmospheric mass density...
Loading historical data...
Loading historical data...
Loading historical data...
Loading historical data...
Loading historical data...
Loading historical data...
Loading historical data...

Documentation

Showing up to 5 results
|